﻿Дата;Google;AdRiver;ReadMe.ru;RedTram
2022-08-03;0;0;0;1
2021-02-28;1;0;0;0
2021-01-24;1;0;0;0
2021-01-19;1;0;0;0
2020-11-30;1;0;0;0
2020-08-22;1;0;0;0
2020-08-07;1;0;0;0
2020-07-17;1;0;0;0
2020-06-25;1;0;0;0
2020-05-27;1;0;0;0
2020-05-17;1;0;0;0
2020-05-13;1;0;0;0
2020-05-09;1;0;0;0
2020-05-05;1;0;0;0
2020-04-20;1;0;0;0
2020-04-06;1;0;0;0
2019-12-28;8;0;0;0
2019-12-27;2;0;0;0
2019-12-25;1;0;0;0
2019-11-21;2;0;0;0
2019-01-14;1;0;0;0
2018-12-09;1;0;0;0
2018-07-29;1;0;0;0
2017-03-28;1;0;0;0
2017-03-21;1;0;0;0
2017-03-20;1;0;0;0
2017-03-19;1;0;0;0
2017-03-14;1;0;0;0
2017-03-10;1;0;0;0
2017-03-09;2;0;0;0
2017-03-08;1;0;0;0
2017-03-07;1;0;0;0
2017-03-06;1;0;0;0
2017-03-05;2;0;0;0
2017-03-04;1;0;0;0
2017-03-03;2;0;0;0
2017-02-21;2;0;0;0
2017-02-20;2;0;0;0
2017-02-18;2;0;0;0
2017-02-16;1;0;0;0
2017-02-12;1;0;0;0
2017-02-11;1;0;0;0
2017-02-10;1;0;0;0
2017-02-08;1;0;0;0
2017-02-07;1;0;0;0
2017-02-06;1;0;0;0
2017-02-01;1;0;0;0
2017-01-22;1;0;0;0
2017-01-20;1;0;0;0
2017-01-19;1;0;0;0
2017-01-16;1;0;0;0
2017-01-08;1;0;0;0
2017-01-05;1;0;0;0
2017-01-04;1;0;0;0
2016-12-24;1;0;0;0
2016-12-13;1;0;0;0
2016-12-11;1;0;0;0
2016-12-09;1;0;0;0
2016-12-07;1;0;0;0
2016-12-04;1;0;0;0
2016-11-29;2;0;0;0
2016-11-28;1;0;0;0
2016-11-25;2;0;0;0
2016-11-20;1;0;0;0
2016-11-16;2;0;0;0
2016-11-14;2;0;0;0
2016-11-11;1;0;0;0
2016-11-08;1;0;0;0
2016-11-06;2;0;0;0
2016-11-03;1;0;0;0
2016-11-02;1;0;0;0
2016-10-31;1;0;0;0
2016-10-30;1;0;0;0
2016-10-25;1;0;0;0
2016-10-23;3;0;0;0
2016-10-22;1;0;0;0
2016-10-16;1;0;0;0
2016-10-15;1;0;0;0
2016-10-14;1;0;0;0
2016-10-13;1;0;0;0
2016-10-09;2;0;0;0
2016-10-06;1;0;0;0
2016-09-18;1;0;0;0
2016-09-14;1;0;0;0
2016-09-13;1;0;0;0
2016-09-11;1;0;0;0
2016-09-09;1;0;0;0
2016-09-07;1;0;0;0
2016-09-05;1;0;0;0
2016-08-30;1;0;0;0
2016-08-22;1;0;0;0
2016-08-04;2;0;0;0
2016-08-03;1;0;0;0
2016-08-01;1;0;0;0
2016-07-27;2;0;0;0
2016-07-25;2;0;0;0
2016-07-22;1;0;0;0
2016-07-21;1;0;0;0
2016-07-19;1;0;0;0
2016-07-17;1;0;0;0
2016-07-16;2;0;0;0
2016-07-14;1;0;0;0
2016-07-12;1;0;0;0
2016-06-23;1;0;0;0
2016-06-17;2;0;0;0
2016-06-14;2;0;0;0
2016-06-04;1;0;0;0
2016-05-30;1;0;0;0
2016-05-24;1;0;0;0
2016-05-22;1;0;0;0
2016-05-18;1;0;0;0
2016-05-15;1;0;0;0
2016-05-14;2;0;0;0
2016-05-12;1;0;0;0
2016-05-11;1;0;0;0
2016-05-09;2;0;0;0
2016-05-08;1;0;0;0
2016-05-07;1;0;0;0
2016-05-06;1;0;0;0
2016-05-05;1;0;0;0
2016-05-04;1;0;0;0
2016-05-03;2;0;0;0
2016-05-02;3;0;0;0
2016-05-01;4;0;0;0
2016-04-30;4;0;0;0
2016-04-29;3;0;0;0
2016-04-28;3;0;0;0
2016-04-27;2;0;0;0
2016-04-26;1;1;0;0
2016-04-25;1;0;0;0
2016-04-24;3;0;0;0
2016-04-23;3;0;0;0
2016-04-22;1;0;0;0
2016-04-21;1;0;0;0
2016-04-20;2;0;0;0
2016-04-19;1;0;0;0
2016-04-18;2;0;0;0
2016-04-17;1;0;0;0
2016-04-16;1;0;0;0
2016-04-15;1;0;0;0
2016-04-14;1;0;0;0
2016-04-10;1;0;0;0
2016-04-05;1;0;0;0
2016-04-03;1;0;0;0
2016-04-02;0;1;0;0
2016-04-01;1;0;0;0
2016-03-30;1;0;0;0
2016-03-29;1;0;0;0
2016-03-22;1;0;0;0
2016-03-14;2;0;0;0
2016-03-13;1;0;0;0
2016-03-12;3;0;0;0
2016-03-07;1;0;0;0
2016-03-05;1;0;0;0
2016-02-28;1;0;0;0
2016-02-20;1;0;0;0
2016-02-17;2;0;0;0
2016-02-15;1;0;0;0
2016-02-09;1;0;0;0
2016-02-05;1;0;0;0
2016-02-04;1;0;0;0
2016-02-03;1;0;0;0
2016-01-29;1;0;0;0
2016-01-25;1;0;0;0
2016-01-21;1;0;0;0
2016-01-19;1;0;0;0
2016-01-16;1;0;0;0
2016-01-15;1;0;0;0
2016-01-12;1;0;0;0
2016-01-08;3;0;0;0
2016-01-07;2;0;0;0
2016-01-04;3;0;0;0
2016-01-03;4;0;0;0
2016-01-02;2;0;0;0
2016-01-01;1;0;0;0
2015-12-30;1;0;0;0
2015-12-28;3;0;0;0
2015-12-27;1;0;0;0
2015-12-25;1;0;0;0
2015-12-17;1;0;0;0
2015-12-15;1;0;0;0
2015-12-11;1;0;0;0
2015-12-09;1;0;0;0
2015-12-08;1;0;0;0
2015-12-02;1;0;0;0
2015-11-25;1;0;0;0
2015-11-24;1;0;0;0
2015-11-23;4;0;0;0
2015-11-22;1;0;0;0
2015-11-19;8;0;0;0
2015-11-18;5;0;0;0
2015-11-17;1;0;0;0
2015-11-16;1;0;0;0
2015-11-15;3;0;0;0
2015-11-13;1;0;0;0
2015-11-11;2;0;0;0
2015-11-08;1;0;0;0
2015-11-05;1;0;0;0
2015-11-02;1;0;0;0
2015-11-01;1;0;0;0
2015-10-26;1;0;0;0
2015-10-19;1;0;0;0
2015-10-15;3;0;0;0
2015-10-14;2;0;0;0
2015-10-13;2;0;0;0
2015-10-12;3;0;0;0
2015-10-10;2;0;0;0
2015-10-07;3;0;0;0
2015-10-06;4;0;0;0
2015-10-02;2;0;0;0
2015-10-01;1;0;0;0
2015-09-30;2;0;0;0
2015-09-29;4;0;0;0
2015-09-27;1;0;0;0
2015-09-26;1;0;0;0
2015-09-24;2;0;0;0
2015-09-23;1;0;0;0
2015-09-22;3;0;0;0
2015-09-21;1;0;0;0
2015-09-20;6;0;0;0
2015-09-19;2;0;0;0
2015-09-17;7;0;0;0
2015-09-16;3;0;0;0
2015-09-15;7;0;0;0
2015-09-14;4;0;0;0
2015-09-13;4;0;0;0
2015-09-12;6;0;0;0
2015-09-11;3;0;0;0
2015-09-10;6;0;0;0
2015-09-09;11;0;0;0
2015-09-08;2;0;0;0
2015-09-07;1;0;0;0
2015-09-06;1;0;0;0
2015-09-05;2;0;0;0
2015-09-04;3;0;0;0
2015-09-03;1;0;0;0
2015-09-02;4;0;0;0
2015-09-01;3;0;0;0
2015-08-31;2;1;0;0
2015-08-30;3;0;0;0
2015-08-29;2;0;0;0
2015-08-27;1;0;0;0
2015-08-26;2;0;0;0
2015-08-25;1;0;0;0
2015-08-24;2;0;0;0
2015-08-20;2;0;0;0
2015-08-19;1;0;0;0
2015-08-18;3;0;0;0
2015-08-16;4;0;0;0
2015-08-15;1;0;0;0
2015-08-14;1;0;0;0
2015-08-13;2;0;0;0
2015-08-11;1;0;0;0
2015-08-10;2;0;0;0
2015-08-09;4;0;0;0
2015-08-07;2;0;0;0
2015-08-06;1;0;0;0
2015-08-05;1;0;0;0
2015-08-04;4;0;0;0
2015-08-03;1;0;0;0
2015-08-01;3;0;0;0
2015-07-31;6;0;0;0
2015-07-30;1;0;0;0
2015-07-29;4;0;0;0
2015-07-28;1;0;0;0
2015-07-27;1;0;0;0
2015-07-26;1;0;0;0
2015-07-25;2;0;0;0
2015-07-23;1;0;0;0
2015-07-22;1;0;0;0
2015-07-21;5;0;0;0
2015-07-20;6;0;0;0
2015-07-19;11;0;0;0
2015-07-18;8;0;0;0
2015-07-17;4;0;0;0
2015-07-16;9;0;0;0
2015-07-15;7;0;0;0
2015-07-14;5;0;0;0
2015-07-13;12;0;0;0
2015-07-12;13;0;0;0
2015-07-11;9;0;0;0
2015-07-10;9;0;0;0
2015-07-09;8;0;0;0
2015-07-08;11;0;0;0
2015-07-07;10;0;0;0
2015-07-06;7;0;0;0
2015-07-05;8;0;0;0
2015-07-04;4;1;0;0
2015-07-03;7;0;0;0
2015-07-02;12;0;0;0
2015-07-01;5;0;0;0
2015-06-30;4;0;0;0
2015-06-29;6;0;0;0
2015-06-28;6;0;0;0
2015-06-27;5;0;0;0
2015-06-25;8;0;0;0
2015-06-24;6;0;0;0
2015-06-23;10;0;0;0
2015-06-22;2;0;0;0
2015-06-21;10;0;0;0
2015-06-20;8;0;0;0
2015-06-19;7;0;0;0
2015-06-18;2;0;0;0
2015-06-17;6;0;0;0
2015-06-16;8;0;0;0
2015-06-15;12;0;0;0
2015-06-14;7;0;0;0
2015-06-13;7;0;0;0
2015-06-12;10;0;0;0
2015-06-11;5;0;0;0
2015-06-10;4;0;0;0
2015-06-09;10;0;0;0
2015-06-08;12;0;0;0
2015-06-07;7;0;0;0
2015-06-06;3;0;0;0
2015-06-05;10;0;0;0
2015-06-04;6;0;0;0
2015-06-03;2;0;0;0
2015-06-02;6;0;0;0
2015-06-01;7;0;0;0
2015-05-31;10;0;0;0
2015-05-30;8;0;0;0
2015-05-29;5;0;0;0
2015-05-28;6;0;0;0
2015-05-27;11;0;0;0
2015-05-26;11;0;0;0
2015-05-25;14;0;0;0
2015-05-24;8;0;0;0
2015-05-23;11;0;0;0
2015-05-22;12;0;0;0
2015-05-21;15;0;0;0
2015-05-20;16;0;0;0
2015-05-19;10;0;0;0
2015-05-18;6;0;0;0
2015-05-17;5;0;0;0
2015-05-16;12;0;0;0
2015-05-15;8;0;0;0
2015-05-14;4;0;0;0
2015-05-13;12;0;0;0
2015-05-12;12;0;0;0
2015-05-11;15;0;0;0
2015-05-10;10;0;0;0
2015-05-09;8;0;0;0
2015-05-08;8;0;0;0
2015-05-07;5;0;0;0
2015-05-06;11;0;0;0
2015-05-05;12;0;0;0
2015-05-04;14;0;0;0
2015-05-03;5;0;0;0
2015-05-02;7;1;0;0
2015-05-01;5;0;0;0
2015-04-30;5;0;0;0
2015-04-29;7;0;0;0
2015-04-28;9;0;0;0
2015-04-27;13;0;0;0
2015-04-26;11;0;0;0
2015-04-25;12;0;0;0
2015-04-24;9;0;0;0
2015-04-23;10;0;0;0
2015-04-22;13;0;0;0
2015-04-21;20;0;0;0
2015-04-20;25;0;0;0
2015-04-19;20;0;0;0
2015-04-18;18;0;0;0
2015-04-17;20;1;0;0
2015-04-16;19;0;0;0
2015-04-15;19;0;0;0
2015-04-14;15;0;0;0
2015-04-13;14;0;0;0
2015-04-12;4;0;0;0
2015-04-11;9;0;0;0
2015-04-10;7;0;0;0
2015-04-09;7;0;0;0
2015-04-08;12;0;0;0
2015-04-07;29;0;0;0
2015-04-06;44;1;0;0
2015-04-05;28;0;0;0
2015-04-04;33;0;0;0
2015-04-03;32;0;0;0
2015-04-02;21;0;0;0
2015-04-01;39;0;0;0
2015-03-31;32;0;0;0
2015-03-30;17;0;0;0
2015-03-29;28;0;0;0
2015-03-28;15;0;0;0
2015-03-27;13;0;0;0
2015-03-26;17;0;0;0
2015-03-25;10;0;0;0
2015-03-24;10;0;0;0
2015-03-23;26;0;0;0
2015-03-22;34;0;0;0
2015-03-21;22;0;0;0
2015-03-20;22;0;0;0
2015-03-19;33;0;0;0
2015-03-18;18;1;0;0
2015-03-17;11;0;0;0
2015-03-16;21;0;0;0
2015-03-15;13;0;0;0
2015-03-14;12;0;0;0
2015-03-13;15;0;0;0
2015-03-12;28;0;0;0
2015-03-11;24;0;0;0
2015-03-10;27;0;0;0
2015-03-09;25;1;0;0
2015-03-08;30;0;0;0
2015-03-07;31;0;0;0
2015-03-06;20;0;0;0
2015-03-05;22;0;0;0
2015-03-04;27;0;0;0
2015-03-03;34;0;0;0
2015-03-02;30;1;0;0
2015-03-01;65;0;0;0
2015-02-28;71;0;0;0
2015-02-27;73;0;0;0
2015-02-26;56;0;0;0
2015-02-25;58;0;0;0
2015-02-24;31;0;0;0
2015-02-23;19;0;0;0
2015-02-22;22;0;0;0
2015-02-21;19;0;0;0
2015-02-20;7;0;0;0
2015-02-19;16;0;0;0
2015-02-18;14;0;0;0
2015-02-17;28;0;0;0
2015-02-16;14;0;0;0
2015-02-13;1;0;0;0
2015-02-09;1;0;0;0
2015-02-07;1;0;0;0
2015-02-05;1;0;0;0
2015-02-03;3;0;0;0
2015-02-02;5;0;0;0
2015-02-01;2;0;0;0
2015-01-31;3;0;0;0
2015-01-30;2;0;0;0
2015-01-29;3;0;0;0
2015-01-28;2;0;0;0
2015-01-26;46;0;0;0
2015-01-25;57;0;0;0
2015-01-24;67;0;0;0
2015-01-23;53;0;0;0
2015-01-22;82;1;0;0
2015-01-21;81;1;0;0
2015-01-20;76;0;0;0
2015-01-19;58;0;0;0
2015-01-18;61;0;0;0
2015-01-17;35;0;0;0
2015-01-16;53;0;0;0
2015-01-15;16;0;0;0
2015-01-14;10;0;0;0
2015-01-13;2;0;0;0
2015-01-12;3;0;0;0
2015-01-11;2;0;0;0
2015-01-09;1;0;0;0
2015-01-08;1;0;0;0
2015-01-07;1;0;0;0
2015-01-05;1;0;0;0
2015-01-02;1;0;0;0
2014-12-31;1;0;0;0
2014-12-29;1;0;0;0
2014-12-25;1;0;0;0
2014-12-21;1;0;0;0
2014-12-19;1;0;0;0
2014-12-17;1;0;0;0
2014-12-16;2;0;0;0
2014-12-15;3;0;0;0
2014-12-14;2;0;0;0
2014-12-13;1;0;0;0
2014-12-12;1;0;0;0
2014-12-09;2;0;0;0
2014-12-08;1;0;0;0
2014-12-03;1;0;0;0
2014-12-02;1;0;0;0
2014-11-30;3;0;0;0
2014-11-28;2;0;0;0
2014-11-27;0;1;0;0
2014-11-26;1;0;0;0
2014-11-25;1;0;0;0
2014-11-24;1;0;0;0
2014-11-20;1;0;0;0
2014-11-18;2;0;0;0
2014-11-17;1;0;0;0
2014-11-16;1;0;0;0
2014-11-15;1;0;0;0
2014-11-14;1;0;0;0
2014-11-13;3;0;0;0
2014-11-12;1;0;0;0
2014-11-10;1;0;0;0
2014-11-09;1;0;0;0
2014-11-08;1;0;0;0
2014-11-07;1;0;0;0
2014-11-05;1;0;0;0
2014-11-04;2;0;0;0
2014-11-03;2;0;0;0
2014-10-30;2;0;0;0
2014-10-28;1;0;0;0
2014-10-27;2;0;0;0
2014-10-26;1;0;0;0
2014-10-21;2;0;0;0
2014-10-19;1;0;0;0
2014-10-16;1;0;0;0
2014-10-09;1;0;0;0
2014-10-07;1;0;0;0
2014-10-06;2;0;0;0
2014-09-24;2;0;0;0
2014-09-22;1;0;0;0
2014-09-20;1;0;0;0
2014-09-18;1;0;0;0
2014-09-17;1;0;0;0
2014-09-13;2;0;0;0
2014-09-12;1;0;0;0
2014-09-10;2;0;0;0
2014-09-05;1;0;0;0
2014-09-04;2;0;0;0
2014-09-01;1;0;0;0
2014-08-27;1;0;0;0
2014-08-25;1;0;0;0
2014-08-20;1;0;0;0
2014-08-12;1;0;0;0
2014-08-10;2;0;0;0
2014-08-08;1;0;0;0
2014-08-01;1;0;0;0
2014-07-31;1;0;0;0
2014-07-30;2;0;0;0
2014-07-28;2;0;0;0
2014-07-22;2;0;0;0
2014-07-21;2;0;0;0
2014-07-20;1;0;0;0
2014-07-19;1;0;0;0
2014-07-18;1;0;0;0
2014-07-14;1;0;0;0
2014-07-10;1;0;0;0
2014-07-08;1;0;0;0
2014-07-04;1;0;0;0
2014-07-01;1;0;0;0
2014-06-29;1;0;0;0
2014-06-27;3;0;0;0
2014-06-26;4;0;0;0
2014-06-25;2;0;0;0
2014-06-24;2;0;0;0
2014-06-23;2;0;0;0
2014-06-22;2;0;0;0
2014-06-21;1;0;0;0
2014-06-20;2;0;0;0
2014-06-16;2;0;0;0
2014-06-14;1;0;0;0
2014-06-13;1;0;0;0
2014-06-12;1;0;0;0
2014-06-11;1;0;0;0
2014-06-10;2;0;0;0
2014-06-09;1;0;0;0
2014-06-08;2;0;0;0
2014-06-07;2;0;0;0
2014-06-06;3;0;0;0
2014-06-05;5;0;0;0
2014-06-04;6;0;0;0
2014-06-03;4;0;0;0
2014-06-02;6;0;0;0
2014-06-01;5;0;0;0
2014-05-31;7;1;0;0
2014-05-30;6;0;0;0
2014-05-29;7;0;0;0
2014-05-28;3;0;0;0
2014-05-27;2;0;0;0
2014-05-26;5;0;0;0
2014-05-25;2;0;0;0
2014-05-24;2;0;0;0
2014-05-23;3;0;0;0
2014-05-22;4;0;0;0
2014-05-21;3;0;0;0
2014-05-20;5;0;0;0
2014-05-19;3;0;0;0
2014-05-18;2;0;0;0
2014-05-16;1;0;0;0
2014-05-15;5;0;0;0
2014-05-14;5;0;0;0
2014-05-13;2;0;0;0
2014-05-11;2;0;0;0
2014-05-10;1;1;0;0
2014-05-08;4;0;0;0
2014-05-07;6;0;0;0
2014-05-06;5;0;0;0
2014-05-05;7;0;0;0
2014-05-04;3;0;0;0
2014-05-03;2;0;0;0
2014-05-02;3;0;0;0
2014-05-01;4;0;0;0
2014-04-30;3;0;0;0
2014-04-29;3;0;0;0
2014-04-28;1;0;0;0
2014-04-27;1;0;0;0
2014-04-26;5;0;0;0
2014-04-25;7;0;0;0
2014-04-22;1;0;0;0
2014-04-21;0;1;0;0
2014-04-20;2;0;0;0
2014-04-19;2;1;0;0
2014-04-18;3;0;0;0
2014-04-17;1;0;0;0
2014-04-16;4;0;0;0
2014-04-14;7;0;0;0
2014-04-13;1;0;0;0
2014-04-12;2;0;0;0
2014-04-11;8;0;0;0
2014-04-10;6;0;0;0
2014-04-09;5;0;0;0
2014-04-08;4;0;0;0
2014-04-07;8;0;0;0
2014-04-06;5;0;0;0
2014-04-05;1;0;0;0
2014-04-04;8;0;0;0
2014-04-03;7;0;0;0
2014-04-02;6;0;0;0
2014-04-01;7;0;0;0
2014-03-31;5;0;0;0
2014-03-30;5;0;0;0
2014-03-29;3;0;0;0
2014-03-28;5;0;0;0
2014-03-27;6;0;0;0
2014-03-26;5;0;0;0
2014-03-25;7;0;0;0
2014-03-24;3;0;0;0
2014-03-23;5;0;0;0
2014-03-22;2;0;0;0
2014-03-21;4;0;0;0
2014-03-20;8;0;0;0
2014-03-19;7;0;0;0
2014-03-18;6;0;0;0
2014-03-17;8;0;0;0
2014-03-16;4;0;0;0
2014-03-15;10;0;0;0
2014-03-14;8;0;0;0
2014-03-13;6;0;0;0
2014-03-12;12;0;0;0
2014-03-11;9;0;0;0
2014-03-10;7;0;0;0
2014-03-09;5;0;0;0
2014-03-08;4;0;0;0
2014-03-07;4;0;0;0
2014-03-06;10;0;0;0
2014-03-05;8;0;0;0
2014-03-04;11;0;0;0
2014-03-03;6;0;0;0
2014-03-02;6;0;0;0
2014-03-01;6;0;0;0
2014-02-28;12;0;0;0
2014-02-27;7;0;0;0
2014-02-26;7;0;0;0
2014-02-25;5;0;0;0
2014-02-24;11;0;0;0
2014-02-23;4;0;0;0
2014-02-22;7;0;0;0
2014-02-21;6;0;0;0
2014-02-20;9;0;0;0
2014-02-19;11;0;0;0
2014-02-18;3;0;0;0
2014-02-17;7;0;0;0
2014-02-16;7;0;0;0
2014-02-15;7;0;0;0
2014-02-14;12;0;0;0
2014-02-13;9;0;0;0
2014-02-12;13;0;0;0
2014-02-11;6;1;0;0
2014-02-10;2;1;0;0
2014-02-09;4;1;0;0
2014-02-08;6;1;0;0
2014-02-07;4;0;0;0
2014-02-06;7;0;0;0
2014-02-05;9;0;0;0
2014-02-04;9;0;0;0
2014-02-03;9;0;0;0
2014-02-02;4;0;0;0
2014-02-01;5;0;0;0
2014-01-31;5;0;0;0
2014-01-30;5;4;0;0
2014-01-29;7;0;0;0
2014-01-28;5;2;0;0
2014-01-27;9;0;0;0
2014-01-26;5;0;0;0
2014-01-25;6;0;0;0
2014-01-24;4;0;0;0
2014-01-23;8;0;0;0
2014-01-22;2;3;0;0
2014-01-21;12;4;0;0
2014-01-20;7;0;0;0
2014-01-19;6;1;0;0
2014-01-18;11;1;0;0
2014-01-17;5;2;0;0
2014-01-16;6;1;0;0
2014-01-15;5;1;0;0
2014-01-14;18;0;0;0
2014-01-13;14;0;0;0
2014-01-12;8;2;0;0
2014-01-11;5;2;0;0
2014-01-10;13;0;0;0
2014-01-09;16;0;0;0
2014-01-08;20;0;0;0
2014-01-07;5;2;0;0
2014-01-06;8;2;0;0
2014-01-05;12;3;0;0
2014-01-04;17;0;0;0
2014-01-03;14;0;0;0
2014-01-02;16;1;0;0
2014-01-01;13;0;0;0
2013-12-31;24;0;0;0
2013-12-30;20;0;0;0
2013-12-29;15;0;0;0
2013-12-28;15;0;0;0
2013-12-27;18;0;0;0
2013-12-26;10;0;0;0
2013-12-25;19;0;0;0
2013-12-24;23;0;0;0
2013-12-23;23;1;0;0
2013-12-22;15;0;0;0
2013-12-21;22;0;0;0
2013-12-20;25;0;0;0
2013-12-19;25;0;0;0
2013-12-18;13;0;0;0
2013-12-17;14;0;0;0
2013-12-16;16;0;0;0
2013-12-15;16;1;0;0
2013-12-14;16;0;0;0
2013-12-13;10;0;0;0
2013-12-12;2;0;0;0
2013-12-11;5;0;0;0
2013-12-10;2;0;0;0
2013-12-08;3;0;0;0
2013-12-07;1;0;0;0
2013-12-06;1;0;0;0
2013-12-05;0;1;0;0
2013-12-04;9;0;0;0
2013-12-03;2;0;0;0
2013-12-02;18;0;0;0
2013-12-01;20;0;0;0
2013-11-30;19;0;0;0
2013-11-29;17;0;0;0
2013-11-28;13;0;0;0
2013-11-19;0;0;1;0
2013-11-05;0;1;0;0
2013-10-31;0;1;0;0
2013-10-13;0;1;0;0
2013-10-12;0;1;0;0
2013-10-08;0;1;0;0
2013-10-07;0;1;0;0
2013-10-05;0;1;0;0
2013-09-25;0;1;0;0
2013-09-23;0;1;0;0
2013-09-19;0;1;0;0
2013-08-04;0;0;1;0
2013-08-01;1;0;0;0
